Showing default

JILIN-01-05, 43023

Orbit data source: Space-Track

JILIN-01-05, 43023 is a payload satellite owned by Changguang WJ (CN) in SSO that was launched on Tue, 21 Nov 2017 UTC via a CHANG ZHENG 6 launch vehicle from the Taiyaun Space Center, China (TSC). Payloads include a variety of satellites, spacecraft, and rockets equipped with specific instruments for various scientific and technological missions. These include communications satellites like Starlink; space stations such as the ISS; scientific satellites like the Hubble; Earth observation satellites from companies like Planet Labs, Umbra, and HawkEye 360; GPS; miniature CubeSats for education and research; and military/defense satellites.

Loading next visibility...
JILIN-01-05 details
Identifier
43023, 2017-074B
Orbit
SSO
Last TLE update11 hours ago
Origin
Flag of CNChangguang WJ (CN / PRC)
ManufacturerHARB/CIOMP
MissionOperational Commercial Imaging
Bus & MotorJL-1, Unknown motor
Mass95 kg wet, 95 kg dry
Launch date (UTC)
2017-11-21 (7 years ago)
Launch vehicle
CHANG ZHENG 6
Launch site
Taiyaun Space Center, China (TSC)
Object type
Payload
Rocket body
Debris
Shape & HBRBox + 2 Pan, 1.5 m
Radar Cross Section2.000 m², Medium (>0.1 m² and < 1m²)

Expand to show TLE details & history

TLE from 11 hours ago
0 JILIN-01-05
1 43023U 17074B   24361.24391182  .00010177  00000-0  40773-3 0  9997
2 43023  97.4856  92.8625 0005487 346.1433  13.9653 15.25219043391768
Epoch: 2024-12-26T05:51Z
Definitive object data (Epoch: 2024-12-26T05:51:13.981Z)
Latitude-0.00003°
Longitude-90.17184°
Altitude489.565 km
Speed7.622 km/s
True Right ascension06h 11m 27s
True Declination0° 00' 00"
Sunlit
Object was in full shadow at TLE epoch
Visualization TLE readout
Latitude-38.34406°
Longitude-83.78678°
Altitude501.317 km
Speed7.614 km/s
Apparent Right ascension05h 24m 40s
Apparent Declination-40° 29' 60"
Sunlit
Object is in full shadow
Visualization observer readout
Local Sidereal Time16:04:38
Azimuth261.337° W
Elevation-74.74°
Doppler factor1
Orbital elements
Apogee altitude490.857 km
Perigee altitude483.323 km
Semi-major axis6,865.227 km
Eccentricity0.0005487
Inclination97.4856°
RAAN92.8625°
Arg. of periapsis346.1433°
True anomaly13.98048°
Mean anomaly13.9653°
Eccentric anomaly13.97289°
Mean motion3.81558 °/min
BSTAR0.00040773
Orbital period94.35 mins
Loading maneuver chart data...
Loading historical data...
Loading historical data...
Loading historical data...
Loading historical data...
Loading historical data...
Loading historical data...
Loading historical data...
Other satellites on launch #74 in the year 2017 (2017-11-21 UTC)

JILIN-01-05 Visibility forecast

Observer location: undefined°, undefined

Span
Click to sort rows by Start time (UTC) header in descending order
Start Az.
Max El. time (UTC)
Max El. Az.
Max El.
End time (UTC)
End Az.
6 mins2024-12-26 19:00:25.767Z20.362° NNE2024-12-26 19:03:25.767Z72.347° E39.834°2024-12-26 19:06:25.767Z178.148° S
4 mins2024-12-27 07:11:25.767Z231.153° WSW2024-12-27 07:13:25.767Z276.097° WNW19.042°2024-12-27 07:15:25.767Z311.966° NW
|